Regional Weather Roundup
Issued by NWS Lake Charles, LA

Home | Current Version | Previous Version | Text Only | Print | Product List | Glossary On
Versions: 1 2 3 4 5 6 7 8 9 10 11 12 13 14 15 16 17 18 19 20 21 22 23 24 25 26 27
000
ASUS44 KLCH 310710
RWRLCH
REGIONAL WEATHER ROUNDUP
NATIONAL WEATHER SERVICE LAKE CHARLES LA
200 AM CDT WED AUG 31 2016

Note: "fair" indicates few or no clouds below 12,000 feet with no
significant weather and/or obstructions to visibility.


ACROSS SOUTHEAST TEXAS

CITY           SKY/WX    TMP DP  RH WIND       PRES   REMARKS
BEAUMONT       MOCLDY    80  75  84 SE6       29.92S
BEAUMONT CITY  FAIR      78  76  91 N3        29.93S
ORANGE         SUNNY     77  76  95 CALM      29.94S
JASPER         CLEAR     77  74  92 CALM      29.97S
$$

ACROSS CENTRAL LOUISIANA

CITY           SKY/WX    TMP DP  RH WIND       PRES   REMARKS
LEESVILLE      CLEAR     78  74  87 N5        29.94S
FULLERTON      FAIR      77  74  90 CALM      29.92F
ALEXANDRIA INT CLEAR     76  76 100 CALM      29.92F FOG
ESLER FIELD    CLEAR     75  75 100 CALM      29.94S FOG
DERIDDER       FAIR      77  76  95 CALM      29.96S
OAKDALE        SUNNY     74  73  98 CALM      29.93S FOG
OPELOUSAS      FAIR      76  74  96 CALM      29.92S
$$

ACROSS SOUTHWEST AND SOUTH CENTRAL LOUISIANA

CITY           SKY/WX    TMP DP  RH WIND       PRES   REMARKS
SULPHUR        SUNNY     80  77  89 CALM      29.93S
LAKE CHARLES   MOCLDY    80  76  87 CALM      29.92S
CHENNAULT INT  PTCLDY    78  75  90 NE3       29.92S
CAMERON PHI    MOSUNNY   81  79  94 CALM      29.91S
DEQUINCY       FAIR      77  74  91 CALM      29.94R
JENNINGS       FAIR      79  75  89 CALM      29.92S
LAFAYETTE      CLEAR     78  75  90 CALM      29.91F
NEW IBERIA     CLEAR     76  73  91 NW5       29.92S
ABBEVILLE      FAIR      74  74 100 CALM      29.91F
PATTERSON      CLEAR     77  76  96 CALM      29.90F
SALT POINT       N/A     78  75  90 CALM      29.88F
$$

SELECTED SITES ACROSS THE REGION

CITY           SKY/WX    TMP DP  RH WIND       PRES   REMARKS
HOUSTON BUSH   CLOUDY    80  75  84 NW3       29.93F
HOUSTON HOBBY  MOCLDY    80  73  79 N3        29.92F
GALVESTON      CLOUDY    81  77  88 CALM      29.92F
COLLEGE STAT   MOCLDY    77  75  93 CALM      29.97R
CONROE         CLOUDY    77  74  90 SE3       29.96R
HUNTSVILLE     MOCLDY    79  75  87 CALM      29.96S
LUFKIN         CLEAR     77  74  90 N5        29.96S
SHREVEPORT     CLEAR     80  76  87 NE5       29.97F
MONROE         CLEAR     77  75  93 NE3       29.97S
NATCHEZ MS     CLEAR     75  72  88 CALM      29.95S
BATON ROUGE    CLEAR     77  75  93 N6        29.91F
N.O. INTL ARPT PTCLDY    84  77  79 NE6       29.89F
SLIDELL        CLEAR     76  74  93 N3        29.89F
$$

MARINE REPORTS

STATION/POSITION TIME  SKY/WX   TEMP    WIND        PRES    VSBY
                                AIR SEA DIR/SP/G
                 (UTC)          (F)     (DEG/KT/KT) (MB)    (MI)
BUOY 30 S HIGH I 0650            80 85   30/ 19/ 23 1012.9F
WVE H/P(F/S)=  2/ 8

SEA RIM ST PARK  0600            82     160/  7/  9 1013.9F
PORT ARTHUR      0600               85  140/  7/  9 1013.6R
SABINE PASS N    0600            82 85  170/  5/  6 1014.8R
TEXAS POINT      NOT AVBL
CALCASIEU PASS   0600            83 85  100/  2/  3 1012.4F
LK CHARLES BEACH 0600            81 80              1013.8S
MARSH ISLAND     0600            84                   N/A
FRESH WATER LOCK 0600            80 84   40/  2/  3 1013.5F
AMERADA PASS     0600            78 84  360/  1/  2 1012.2F
$$




USA.gov is the U.S. government's official web portal to all federal, state and local government web resources and services.